Wind_Speed
27 28 29 29 28 27 26 25 26 27 29 30 32 34 35 35 34 33 33 34 36 37 39 40 40 40 40 40 40 40 41 43 44 45 46 47 49 51 54 56 59 61 63
27 27 28 28 28 27 26 26 27 28 30 32 34 35 35 34 34 35 36 37 38 40 41 41 41 41 42 43 44 45 46 47 50 52 53 53 54 56 59 62 65 67 69
26 26 26 27 27 27 27 28 29 30 32 33 34 34 34 34 35 36 37 39 40 41 42 42 42 43 44 46 47 49 50 52 54 57 61 63 64 64 65 67 69 71 73
26 25 25 26 27 27 28 29 30 31 33 33 34 34 34 36 37 38 40 41 42 42 42 42 43 45 46 48 50 52 54 57 59 62 66 70 73 75 74 73 74 76 78
25 25 25 25 26 27 28 29 30 32 33 33 33 34 36 37 39 40 41 42 42 42 42 43 44 46 48 50 52 55 59 62 66 69 71 73 76 78 80 80 81 82 83
26 25 25 25 26 27 28 29 31 32 33 34 35 36 38 39 40 41 42 42 41 42 43 44 46 48 50 53 56 60 63 67 70 73 76 78 80 82 84 85 85 86 86
26 25 25 25 26 28 29 30 31 33 34 35 36 38 39 40 41 41 41 42 42 43 44 46 48 51 54 58 61 65 68 71 73 76 78 80 82 85 87 89 90 91 90
25 25 25 26 27 28 29 31 32 33 34 36 37 39 39 40 40 41 41 42 43 45 46 49 52 56 59 63 66 69 72 74 76 78 80 82 84 87 90 93 96 97 96
24 24 25 26 27 28 30 31 32 34 35 36 38 39 39 40 40 41 42 43 45 47 50 53 57 61 64 67 70 73 75 77 79 80 82 84 87 90 93 97 100 104 106
24 24 25 26 27 29 30 31 32 33 35 36 37 38 39 40 41 42 43 45 47 50 54 58 62 65 69 71 73 75 77 78 80 82 85 88 91 95 98 101 104 106 109
25 25 26 27 28 29 30 31 32 33 34 36 37 38 40 41 42 43 46 48 51 55 59 62 66 69 72 73 75 76 77 79 82 85 89 93 97 100 102 104 104 104 103
26 27 27 28 29 30 30 31 32 34 35 36 38 39 40 42 43 46 48 52 55 59 63 67 70 72 73 74 75 76 79 83 87 91 95 98 101 103 103 102 101 99 96
27 27 28 29 30 30 31 32 33 35 36 37 39 40 42 44 46 49 52 56 60 64 67 70 71 71 72 74 76 80 84 88 92 97 100 101 102 101 99 97 95 92 90
27 28 29 30 31 32 33 34 35 36 37 39 40 42 44 46 48 52 56 60 64 67 69 69 70 71 73 77 81 85 89 93 97 100 101 101 99 96 94 91 89 87 86
28 29 31 32 33 34 34 35 36 37 39 41 42 44 46 48 52 56 60 64 66 68 68 68 70 73 77 82 86 90 95 98 100 100 99 96 92 89 86 85 84 84 83
29 30 31 32 33 34 35 36 37 39 41 42 43 45 48 51 56 60 63 65 66 66 66 68 72 77 82 87 92 96 99 101 101 98 94 88 84 82 80 81 81 81 80
30 31 32 33 34 35 36 37 39 40 42 43 45 47 51 55 59 62 64 64 64 65 68 72 77 82 87 92 96 99 101 100 97 92 86 81 79 78 79 79 77 73 68
31 32 33 33 34 35 36 38 40 41 42 44 47 50 54 58 61 62 62 62 64 67 72 77 82 87 92 96 99 101 99 95 89 83 79 78 76 77 78 75 70 63 57
32 33 33 33 34 35 37 39 40 41 43 46 50 54 57 60 61 60 61 63 66 71 76 81 86 91 95 99 100 99 95 87 81 77 76 76 76 75 72 68 61 54 49
31 31 32 33 35 37 38 38 39 42 45 49 53 56 58 59 58 59 62 66 70 75 80 85 90 95 98 99 98 94 89 83 78 74 73 73 72 68 63 58 53 47 40
30 31 32 34 36 36 37 38 41 44 48 52 55 57 56 57 58 61 65 70 75 80 84 89 94 97 98 96 92 87 82 80 77 75 72 68 63 59 54 50 45 39 33
30 31 33 34 35 36 37 40 43 47 51 54 55 55 55 57 60 64 69 75 79 84 88 92 96 97 95 91 85 80 78 78 77 73 67 61 55 50 46 41 36 31 28
30 31 32 33 34 36 39 42 46 50 52 53 53 53 55 59 64 69 74 79 84 88 92 96 97 95 90 84 79 77 76 75 72 67 60 54 47 42 37 33 29 26 26
29 30 31 33 36 38 42 45 48 51 51 51 52 54 57 62 67 73 78 83 87 91 95 97 95 90 84 79 77 75 73 70 64 58 52 44 38 34 29 26 25 25 23
29 31 33 35 38 41 44 47 49 49 49 50 53 57 61 66 71 76 81 86 90 94 96 95 91 86 80 77 76 75 70 64 58 50 42 36 30 26 23 23 23 21 20
31 33 35 37 40 43 46 47 47 48 49 52 56 60 65 70 75 79 83 88 92 94 94 89 84 80 77 76 74 69 63 57 50 42 35 29 24 20 19 18 18 17 17
Wind_Direction
238 242 245 248 251 252 253 256 260 266 272 278 284 287 289 290 291 291 292 294 295 296 297 298 299 300 300 300 300 299 299 299 298 298 297 296 296 296 296 295 295 295 294
238 242 246 249 250 252 254 258 263 269 275 281 285 287 288 288 289 291 292 295 296 298 299 300 301 302 302 302 303 302 302 301 300 299 297 295 294 294 294 294 294 294 293
238 243 247 249 250 252 255 260 266 272 278 282 285 286 286 287 289 290 293 295 297 298 299 300 302 303 303 303 303 303 302 301 300 299 298 297 295 293 293 293 293 293 293
238 243 247 250 251 253 257 263 269 274 279 282 284 285 286 287 289 291 293 295 297 298 300 301 302 303 303 303 302 301 300 299 299 298 298 298 298 297 296 295 295 295 294
239 244 248 250 252 255 260 265 271 276 280 282 283 284 286 288 290 292 294 295 297 299 300 301 302 302 301 301 300 299 299 299 299 299 299 298 298 298 297 297 296 296 296
240 245 249 252 255 258 263 267 272 276 279 281 282 284 286 289 291 293 295 297 299 300 300 300 300 300 300 299 299 299 300 300 300 300 300 300 299 299 298 298 297 297 298
242 247 251 255 259 262 266 270 273 276 279 281 284 286 288 290 292 295 297 298 299 299 300 299 299 299 299 300 300 301 301 301 301 301 301 301 301 301 301 300 300 299 299
245 250 254 258 262 265 268 271 274 277 280 282 285 287 289 291 293 296 297 298 299 299 299 299 299 300 300 301 302 302 303 303 303 303 303 303 303 303 303 303 302 301 300
249 253 257 260 264 267 270 273 276 278 281 283 285 287 289 292 295 297 298 298 298 298 299 299 301 302 303 303 304 304 304 304 305 305 305 305 305 305 305 304 304 303 302
254 257 260 263 266 269 272 275 277 280 282 284 286 288 291 294 296 297 297 297 298 299 300 302 303 304 305 306 306 306 307 307 307 308 307 307 307 307 306 306 305 304 304
256 260 263 266 268 271 274 277 280 282 283 285 288 290 293 295 296 297 297 298 300 301 303 305 306 307 308 308 309 309 309 310 310 309 309 309 308 308 307 307 306 305 305
257 262 266 268 272 275 277 279 282 283 285 288 290 293 295 296 297 297 299 301 303 304 306 308 309 310 310 311 311 311 312 312 311 311 311 310 310 309 308 307 307 306 306
258 263 267 270 274 277 279 281 284 286 288 290 293 294 296 297 298 300 302 304 306 308 310 311 312 312 312 313 313 313 313 313 313 313 312 311 311 310 309 308 307 307 307
261 265 269 273 277 279 281 283 286 288 290 293 295 296 298 299 301 303 305 307 309 311 312 313 313 314 314 314 315 315 315 314 314 314 313 312 311 310 309 309 308 308 308
265 269 273 277 279 281 283 285 287 290 292 294 296 298 299 301 303 306 308 310 312 313 314 314 315 315 316 316 316 316 316 316 315 315 314 313 311 310 310 311 311 311 311
269 273 276 279 281 282 284 286 288 291 293 296 297 299 301 304 306 308 311 312 314 314 315 315 316 316 317 317 317 317 317 317 316 315 314 313 312 311 311 312 312 312 312
273 275 278 279 281 282 284 287 290 292 295 296 298 301 303 306 309 311 313 314 314 315 315 316 317 317 318 318 318 318 318 318 317 316 315 314 313 313 313 312 312 312 312
274 276 278 279 280 282 285 288 291 293 295 298 300 303 306 309 311 312 313 314 314 315 317 317 318 318 319 319 319 319 319 318 317 316 315 315 315 314 314 313 314 315 314
273 275 277 279 281 284 287 290 292 294 296 299 302 305 308 311 312 312 313 314 315 316 317 318 319 319 320 320 320 320 319 318 317 317 317 317 317 316 315 315 316 317 317
272 274 277 280 283 286 289 291 293 295 299 302 305 308 310 311 312 313 314 315 317 317 318 319 320 320 321 321 321 320 319 318 318 318 319 318 317 317 317 317 318 319 321
272 276 279 282 285 287 289 291 294 298 301 305 307 309 310 311 312 313 315 316 317 318 319 320 321 322 322 322 321 320 319 319 320 320 321 320 319 318 318 318 320 323 325
276 279 281 283 285 288 291 294 297 301 304 306 308 309 310 311 313 314 316 317 318 319 320 321 322 323 323 322 321 320 320 321 321 322 322 321 321 320 320 321 323 326 328
278 281 282 284 287 290 293 296 300 303 305 307 308 309 310 312 314 315 317 318 319 320 321 322 323 324 323 322 321 321 321 321 321 322 323 323 322 322 322 323 326 329 331
280 282 284 286 289 292 296 299 302 305 306 307 308 309 311 313 315 317 318 320 320 321 323 323 324 324 323 322 322 322 322 322 322 323 324 324 325 326 327 328 330 334 337
282 283 285 288 292 296 299 302 304 305 306 307 309 311 313 315 317 318 320 321 322 323 324 324 324 324 324 324 324 325 325 325 325 326 327 328 329 330 330 331 334 339 344
284 286 289 293 296 299 301 303 304 306 307 308 310 312 314 316 318 319 320 322 323 324 325 325 325 325 325 326 326 326 326 327 327 329 330 333 334 336 336 337 340 346 350
Height
5769 5770 5773 5775 5778 5780 5781 5782 5783 5783 5784 5783 5782 5781 5779 5778 5776 5773 5771 5769 5766 5763 5761 5758 5754 5751 5747 5744 5741 5737 5734 5729 5726 5723 5721 5718 5714 5709 5705 5700 5696 5691 5686
5764 5766 5768 5771 5773 5775 5776 5777 5778 5778 5778 5777 5776 5775 5773 5771 5769 5767 5764 5762 5759 5756 5753 5749 5746 5742 5738 5734 5730 5727 5723 5719 5714 5710 5707 5705 5704 5698 5693 5687 5681 5675 5670
5759 5761 5764 5766 5768 5770 5771 5772 5773 5772 5772 5771 5770 5768 5766 5765 5763 5760 5757 5755 5752 5748 5745 5741 5737 5733 5729 5724 5720 5716 5711 5707 5702 5696 5690 5685 5682 5681 5679 5672 5665 5658 5652
5754 5756 5759 5761 5763 5765 5766 5766 5767 5766 5766 5764 5763 5761 5760 5758 5756 5753 5750 5747 5744 5740 5736 5733 5728 5724 5719 5715 5710 5705 5700 5695 5690 5684 5676 5668 5661 5655 5653 5651 5644 5637 5630
5749 5751 5754 5756 5758 5759 5760 5760 5760 5760 5759 5758 5756 5754 5753 5750 5748 5745 5742 5739 5736 5732 5728 5724 5719 5715 5710 5705 5700 5694 5688 5681 5675 5668 5661 5654 5646 5636 5629 5626 5621 5614 5606
5744 5746 5749 5751 5753 5754 5754 5754 5754 5753 5752 5751 5749 5747 5745 5743 5740 5737 5734 5731 5727 5723 5719 5715 5710 5705 5700 5694 5688 5682 5675 5668 5660 5651 5643 5635 5627 5618 5609 5603 5598 5591 5584
5739 5741 5744 5746 5747 5748 5748 5748 5747 5746 5745 5744 5742 5740 5737 5735 5732 5729 5726 5722 5718 5714 5710 5705 5700 5694 5689 5682 5675 5668 5660 5652 5644 5635 5626 5616 5606 5596 5585 5576 5570 5566 5560
5733 5736 5738 5740 5741 5741 5741 5741 5741 5740 5738 5737 5735 5732 5730 5727 5724 5721 5717 5713 5709 5704 5700 5694 5689 5682 5676 5669 5661 5653 5644 5635 5626 5617 5607 5597 5587 5575 5564 5552 5541 5534 5532
5728 5731 5733 5734 5734 5735 5735 5735 5734 5733 5731 5730 5727 5725 5722 5719 5716 5712 5708 5704 5699 5694 5689 5683 5676 5669 5662 5654 5646 5637 5628 5618 5608 5598 5588 5578 5567 5555 5542 5528 5513 5499 5491
5723 5725 5727 5728 5728 5728 5728 5728 5727 5726 5724 5722 5720 5717 5714 5711 5707 5703 5699 5694 5689 5684 5677 5670 5663 5655 5647 5638 5629 5620 5610 5600 5590 5579 5568 5557 5544 5532 5518 5503 5488 5469 5452
5718 5719 5721 5721 5722 5722 5722 5721 5720 5719 5717 5715 5712 5709 5706 5702 5698 5694 5689 5684 5678 5672 5665 5657 5649 5640 5631 5622 5613 5603 5593 5582 5571 5559 5547 5534 5520 5507 5491 5476 5460 5443 5423
5712 5714 5715 5715 5715 5715 5715 5714 5713 5711 5709 5707 5704 5701 5697 5693 5689 5684 5679 5673 5666 5659 5651 5642 5633 5624 5615 5606 5596 5586 5575 5563 5551 5538 5524 5510 5495 5480 5463 5447 5432 5416 5400
5707 5708 5709 5709 5708 5708 5708 5707 5705 5703 5701 5699 5696 5692 5688 5684 5679 5674 5668 5661 5653 5645 5636 5627 5618 5608 5599 5589 5579 5568 5556 5543 5529 5515 5500 5484 5467 5452 5436 5421 5406 5391 5378
5700 5702 5702 5702 5701 5701 5700 5699 5697 5695 5693 5690 5687 5683 5679 5674 5669 5663 5656 5648 5640 5631 5622 5612 5602 5592 5582 5571 5561 5550 5537 5523 5508 5491 5474 5458 5441 5425 5410 5396 5383 5369 5356
5694 5695 5695 5695 5694 5693 5692 5691 5689 5687 5684 5681 5677 5673 5669 5663 5657 5651 5643 5635 5626 5617 5607 5597 5587 5576 5565 5554 5542 5530 5517 5501 5485 5469 5451 5434 5418 5402 5387 5373 5360 5347 5333
5688 5688 5688 5688 5687 5686 5685 5683 5681 5678 5675 5672 5668 5663 5658 5652 5646 5638 5630 5621 5612 5603 5593 5583 5573 5561 5548 5536 5522 5508 5494 5478 5461 5445 5429 5413 5398 5384 5371 5357 5343 5328 5313
5681 5681 5681 5680 5679 5678 5677 5675 5673 5670 5666 5662 5658 5653 5647 5641 5633 5625 5617 5608 5599 5590 5580 5569 5558 5545 5531 5516 5501 5486 5471 5454 5437 5420 5406 5393 5380 5365 5352 5340 5328 5315 5301
5673 5673 5673 5673 5672 5670 5669 5667 5664 5661 5657 5653 5648 5642 5636 5628 5621 5612 5604 5595 5586 5576 5566 5554 5541 5528 5512 5496 5480 5464 5448 5432 5416 5401 5387 5374 5362 5347 5332 5320 5310 5300 5289
5666 5666 5666 5665 5664 5663 5661 5658 5655 5651 5647 5642 5637 5631 5624 5616 5608 5600 5591 5582 5573 5562 5551 5538 5524 5510 5494 5476 5458 5441 5426 5412 5399 5386 5371 5356 5342 5329 5314 5302 5294 5286 5278
5659 5659 5658 5658 5656 5655 5652 5649 5646 5642 5637 5632 5626 5619 5612 5604 5596 5587 5578 5569 5559 5548 5535 5522 5506 5491 5475 5456 5437 5419 5405 5393 5383 5371 5357 5341 5326 5312 5300 5290 5282 5275 5268
5652 5652 5651 5650 5648 5646 5643 5640 5636 5632 5627 5621 5614 5607 5600 5592 5584 5575 5566 5555 5545 5533 5520 5506 5490 5472 5454 5436 5419 5401 5385 5371 5361 5351 5339 5326 5312 5300 5289 5280 5272 5266 5260
5645 5644 5643 5641 5639 5637 5634 5631 5627 5622 5616 5610 5603 5596 5588 5580 5571 5562 5551 5540 5528 5515 5501 5487 5471 5453 5434 5417 5401 5386 5371 5355 5342 5332 5321 5310 5299 5289 5280 5272 5266 5261 5256
5637 5636 5635 5633 5631 5628 5625 5621 5616 5611 5605 5598 5591 5584 5576 5568 5558 5548 5537 5524 5511 5497 5482 5467 5451 5435 5418 5401 5385 5372 5358 5343 5329 5318 5307 5298 5288 5280 5273 5267 5261 5257 5252
5629 5628 5626 5624 5622 5619 5615 5611 5606 5600 5594 5587 5580 5573 5565 5556 5545 5534 5521 5508 5493 5479 5463 5446 5431 5416 5401 5385 5370 5358 5344 5331 5318 5307 5297 5288 5281 5274 5268 5263 5258 5253 5249
5621 5620 5618 5616 5613 5609 5605 5600 5595 5589 5583 5576 5569 5561 5553 5543 5532 5520 5506 5491 5476 5457 5442 5426 5410 5396 5384 5369 5354 5339 5327 5314 5304 5295 5288 5281 5276 5270 5265 5261 5256 5252 5247
5613 5611 5609 5606 5603 5599 5594 5589 5584 5578 5572 5565 5557 5549 5540 5529 5518 5506 5493 5476 5459 5443 5425 5408 5393 5380 5366 5353 5340 5327 5315 5303 5295 5287 5281 5276 5271 5267 5263 5259 5255 5251 5247